GAP2987 RPLL-RPVA

Flight info

Callsign GAP2987
Flight time 0h 56m
Altitude 31000
Route IPATA2R IPATA B462 ARREX ARREX2R
Aircraft A320/M-SDE3FGHIRWY/LB1

Departure

Time 2026-04-26 10:35
Airport Ninoy Aquino International Airport (RPLL)

Arrival

Time 2026-04-26 11:32
Airport Daniel Z. Romualdez Airport (RPVA)
Time Latitude Longitude Altitude Speed Heading
2026-04-26 10:06 14.50881 121.01370 63 ft 0 kts 329°
2026-04-26 10:24 14.50869 121.01377 59 ft 3 kts 330°
2026-04-26 10:24 14.50848 121.01390 65 ft 3 kts 330°
2026-04-26 10:24 14.50832 121.01400 65 ft 3 kts 329°
2026-04-26 10:25 14.50816 121.01413 61 ft 3 kts 284°
2026-04-26 10:25 14.50818 121.01435 63 ft 3 kts 244°
2026-04-26 10:25 14.50826 121.01452 64 ft 3 kts 240°
2026-04-26 10:25 14.50828 121.01455 68 ft 0 kts 240°
2026-04-26 10:29 14.50812 121.01427 67 ft 6 kts 240°
2026-04-26 10:29 14.50795 121.01395 67 ft 5 kts 240°
2026-04-26 10:29 14.50780 121.01369 63 ft 4 kts 240°
2026-04-26 10:29 14.50768 121.01348 63 ft 3 kts 240°
2026-04-26 10:30 14.50722 121.01315 69 ft 13 kts 180°
2026-04-26 10:30 14.50674 121.01315 62 ft 4 kts 201°
2026-04-26 10:30 14.50659 121.01300 69 ft 3 kts 233°
2026-04-26 10:30 14.50640 121.01268 64 ft 5 kts 239°
2026-04-26 10:31 14.50620 121.01233 66 ft 7 kts 240°
2026-04-26 10:31 14.50582 121.01162 68 ft 12 kts 240°
2026-04-26 10:31 14.50544 121.01093 65 ft 10 kts 240°
2026-04-26 10:31 14.50509 121.01031 64 ft 11 kts 240°
2026-04-26 10:32 14.50472 121.00965 64 ft 10 kts 239°
2026-04-26 10:32 14.50439 121.00906 65 ft 9 kts 240°
2026-04-26 10:32 14.50409 121.00852 63 ft 8 kts 240°
2026-04-26 10:32 14.50382 121.00802 62 ft 8 kts 240°
2026-04-26 10:33 14.50355 121.00754 63 ft 8 kts 240°
2026-04-26 10:33 14.50300 121.00655 61 ft 30 kts 239°
2026-04-26 10:33 14.50179 121.00439 65 ft 27 kts 246°
2026-04-26 10:33 14.50113 121.00358 65 ft 8 kts 187°
2026-04-26 10:34 14.50061 121.00385 64 ft 10 kts 149°
2026-04-26 10:34 14.50036 121.00454 58 ft 12 kts 72°
2026-04-26 10:34 14.50129 121.00627 57 ft 59 kts 60°
2026-04-26 10:34 14.50449 121.01201 60 ft 122 kts 60°
2026-04-26 10:35 14.50953 121.02102 97 ft 167 kts 63°
2026-04-26 10:35 14.51538 121.03135 774 ft 164 kts 62°
2026-04-26 10:35 14.52100 121.04155 1523 ft 163 kts 61°
2026-04-26 10:35 14.52672 121.05192 2048 ft 173 kts 62°
2026-04-26 10:36 14.53304 121.06340 2318 ft 194 kts 61°
2026-04-26 10:36 14.54013 121.07628 2545 ft 219 kts 62°
2026-04-26 10:36 14.54812 121.09075 2873 ft 244 kts 61°
2026-04-26 10:36 14.55686 121.10658 3402 ft 261 kts 62°
2026-04-26 10:37 14.56262 121.12440 4160 ft 266 kts 85°
2026-04-26 10:37 14.56040 121.14331 4933 ft 271 kts 112°
2026-04-26 10:37 14.54992 121.15950 5707 ft 276 kts 136°
2026-04-26 10:37 14.53583 121.17307 6516 ft 279 kts 137°
2026-04-26 10:38 14.52146 121.18676 7311 ft 283 kts 137°
2026-04-26 10:38 14.50693 121.20062 8124 ft 286 kts 136°
2026-04-26 10:38 14.49222 121.21469 8940 ft 289 kts 136°
2026-04-26 10:38 14.47736 121.22892 9745 ft 293 kts 136°
2026-04-26 10:39 14.46223 121.24343 10286 ft 306 kts 136°
2026-04-26 10:39 14.44626 121.25878 10543 ft 327 kts 136°
2026-04-26 10:39 14.42937 121.27503 11114 ft 335 kts 136°
2026-04-26 10:39 14.41213 121.29156 11803 ft 340 kts 136°
2026-04-26 10:40 14.39468 121.30827 12515 ft 343 kts 137°
2026-04-26 10:40 14.37707 121.32513 13212 ft 347 kts 137°
2026-04-26 10:40 14.35927 121.34219 13842 ft 352 kts 137°
2026-04-26 10:40 14.34123 121.35949 14395 ft 356 kts 137°
2026-04-26 10:41 14.32299 121.37694 14973 ft 360 kts 137°
2026-04-26 10:41 14.30468 121.39441 15511 ft 364 kts 137°
2026-04-26 10:41 14.28604 121.41220 16082 ft 367 kts 138°
2026-04-26 10:41 14.26721 121.43019 16625 ft 371 kts 138°
2026-04-26 10:42 14.24815 121.44843 17197 ft 374 kts 139°
2026-04-26 10:42 14.22896 121.46678 17745 ft 378 kts 138°
2026-04-26 10:42 14.20963 121.48527 18270 ft 381 kts 139°
2026-04-26 10:42 14.19009 121.50398 18734 ft 385 kts 139°
2026-04-26 10:43 14.17034 121.52288 19185 ft 389 kts 139°
2026-04-26 10:43 14.15042 121.54196 19619 ft 393 kts 139°
2026-04-26 10:43 14.13027 121.56121 20100 ft 396 kts 139°
2026-04-26 10:43 14.11004 121.58051 20555 ft 398 kts 139°
2026-04-26 10:44 14.08954 121.60002 21008 ft 402 kts 139°
2026-04-26 10:44 14.06895 121.61963 21410 ft 406 kts 139°
2026-04-26 10:44 14.04805 121.63956 21817 ft 410 kts 139°
2026-04-26 10:44 14.02697 121.65969 22229 ft 414 kts 139°
2026-04-26 10:45 14.00574 121.67995 22678 ft 416 kts 139°
2026-04-26 10:45 13.98446 121.70024 23191 ft 417 kts 139°
2026-04-26 10:45 13.96313 121.72059 23586 ft 420 kts 139°
2026-04-26 10:45 13.94159 121.74115 23933 ft 423 kts 139°
2026-04-26 10:46 13.91996 121.76180 24284 ft 425 kts 139°
2026-04-26 10:46 13.89851 121.78227 24672 ft 426 kts 139°
2026-04-26 10:46 13.87670 121.80305 25044 ft 428 kts 139°
2026-04-26 10:46 13.85616 121.82520 25407 ft 430 kts 131°
2026-04-26 10:47 13.83696 121.84890 25772 ft 432 kts 131°
2026-04-26 10:47 13.81760 121.87270 26115 ft 434 kts 131°
2026-04-26 10:47 13.79810 121.89660 26481 ft 436 kts 131°
2026-04-26 10:47 13.77855 121.92051 26835 ft 437 kts 131°
2026-04-26 10:48 13.75892 121.94447 27180 ft 439 kts 131°
2026-04-26 10:48 13.73919 121.96861 27513 ft 441 kts 131°
2026-04-26 10:48 13.71939 121.99280 27846 ft 443 kts 131°
2026-04-26 10:48 13.69950 122.01708 28168 ft 445 kts 131°
2026-04-26 10:49 13.67956 122.04148 28503 ft 447 kts 131°
2026-04-26 10:49 13.65956 122.06602 28822 ft 449 kts 131°
2026-04-26 10:49 13.63942 122.09070 29114 ft 451 kts 132°
2026-04-26 10:49 13.61919 122.11547 29401 ft 454 kts 132°
2026-04-26 10:50 13.59905 122.14013 29683 ft 456 kts 132°
2026-04-26 10:50 13.58526 122.15701 29884 ft 458 kts 132°
2026-04-26 10:50 13.55801 122.19025 30244 ft 460 kts 132°
2026-04-26 10:50 13.53707 122.21576 30506 ft 462 kts 132°
2026-04-26 10:51 13.51659 122.24070 30780 ft 463 kts 132°
2026-04-26 10:51 13.47559 122.29077 30913 ft 444 kts 132°
2026-04-26 10:51 13.45609 122.31464 30910 ft 430 kts 132°
2026-04-26 10:52 13.43702 122.33797 30912 ft 425 kts 132°
2026-04-26 10:52 13.39914 122.38420 30912 ft 422 kts 133°
2026-04-26 10:53 13.36130 122.43026 30910 ft 422 kts 133°
2026-04-26 10:53 13.32339 122.47631 30910 ft 421 kts 133°
2026-04-26 10:54 13.26675 122.54532 30906 ft 421 kts 132°
2026-04-26 10:54 13.22952 122.59070 30909 ft 420 kts 133°
2026-04-26 10:55 13.19177 122.63647 30899 ft 420 kts 133°
2026-04-26 10:55 13.16045 122.67439 30896 ft 419 kts 133°
2026-04-26 10:56 13.11645 122.72785 30894 ft 419 kts 132°
2026-04-26 10:56 13.07906 122.77330 30890 ft 419 kts 132°
2026-04-26 10:57 13.04140 122.81897 30889 ft 419 kts 133°
2026-04-26 10:57 13.00380 122.86461 30893 ft 419 kts 132°
2026-04-26 10:58 12.96614 122.91031 30893 ft 419 kts 132°
2026-04-26 10:58 12.92852 122.95588 30893 ft 419 kts 133°
2026-04-26 10:59 12.89105 123.00111 30894 ft 419 kts 133°
2026-04-26 10:59 12.85335 123.04667 30894 ft 419 kts 133°
2026-04-26 11:00 12.81570 123.09227 30897 ft 419 kts 132°
2026-04-26 11:00 12.77798 123.13791 30898 ft 419 kts 133°
2026-04-26 11:01 12.74024 123.18345 30896 ft 419 kts 132°
2026-04-26 11:01 12.70252 123.22898 30897 ft 419 kts 132°
2026-04-26 11:02 12.67091 123.26712 30901 ft 419 kts 132°
2026-04-26 11:02 12.63346 123.31235 30900 ft 419 kts 132°
2026-04-26 11:03 12.59568 123.35791 30907 ft 419 kts 132°
2026-04-26 11:03 12.55790 123.40342 30913 ft 419 kts 133°
2026-04-26 11:04 12.52008 123.44884 30911 ft 419 kts 132°
2026-04-26 11:04 12.48236 123.49419 30911 ft 418 kts 132°
2026-04-26 11:05 12.44476 123.53954 30911 ft 417 kts 132°
2026-04-26 11:05 12.40742 123.58455 30907 ft 417 kts 132°
2026-04-26 11:06 12.36979 123.62973 30901 ft 417 kts 132°
2026-04-26 11:06 12.33255 123.67524 30901 ft 417 kts 131°
2026-04-26 11:07 12.29571 123.72102 30894 ft 417 kts 131°
2026-04-26 11:07 12.25878 123.76690 30898 ft 417 kts 131°
2026-04-26 11:08 12.22181 123.81256 30898 ft 419 kts 132°
2026-04-26 11:08 12.18364 123.85952 30911 ft 439 kts 131°
2026-04-26 11:09 12.14377 123.90861 30900 ft 454 kts 131°
2026-04-26 11:09 12.10355 123.95820 30898 ft 456 kts 131°
2026-04-26 11:10 12.08354 123.98290 30878 ft 441 kts 131°
2026-04-26 11:10 12.06453 124.00642 30610 ft 420 kts 131°
2026-04-26 11:10 12.04611 124.02916 30027 ft 410 kts 131°
2026-04-26 11:10 12.02804 124.05141 29210 ft 405 kts 131°
2026-04-26 11:11 12.01011 124.07345 28573 ft 401 kts 131°
2026-04-26 11:11 11.99243 124.09516 27898 ft 395 kts 131°
2026-04-26 11:11 11.97498 124.11658 27145 ft 390 kts 131°
2026-04-26 11:11 11.95769 124.13784 26401 ft 386 kts 131°
2026-04-26 11:12 11.94065 124.15880 25688 ft 382 kts 131°
2026-04-26 11:12 11.92379 124.17947 25000 ft 377 kts 131°
2026-04-26 11:12 11.90706 124.19999 24322 ft 373 kts 130°
2026-04-26 11:12 11.89058 124.22022 23664 ft 369 kts 130°
2026-04-26 11:13 11.87428 124.24025 22951 ft 365 kts 130°
2026-04-26 11:13 11.85811 124.26009 22230 ft 360 kts 130°
2026-04-26 11:13 11.84220 124.27957 21537 ft 356 kts 130°
2026-04-26 11:13 11.82642 124.29887 20859 ft 352 kts 129°
2026-04-26 11:14 11.81081 124.31798 20195 ft 348 kts 129°
2026-04-26 11:14 11.79570 124.33658 19592 ft 343 kts 129°
2026-04-26 11:14 11.78075 124.35498 19000 ft 339 kts 128°
2026-04-26 11:14 11.76576 124.37340 18406 ft 336 kts 128°
2026-04-26 11:15 11.75092 124.39163 17796 ft 332 kts 128°
2026-04-26 11:15 11.73611 124.40980 17532 ft 332 kts 128°
2026-04-26 11:15 11.72147 124.42775 17241 ft 328 kts 128°
2026-04-26 11:15 11.70697 124.44556 16865 ft 325 kts 128°
2026-04-26 11:16 11.69250 124.46328 16500 ft 324 kts 128°
2026-04-26 11:16 11.67804 124.48092 16134 ft 324 kts 128°
2026-04-26 11:16 11.66377 124.49839 15756 ft 324 kts 128°
2026-04-26 11:16 11.64934 124.51607 15397 ft 324 kts 128°
2026-04-26 11:17 11.63489 124.53373 15034 ft 324 kts 127°
2026-04-26 11:17 11.62046 124.55138 14673 ft 324 kts 128°
2026-04-26 11:17 11.60603 124.56906 14298 ft 324 kts 127°
2026-04-26 11:17 11.59160 124.58676 13920 ft 324 kts 127°
2026-04-26 11:18 11.57726 124.60433 13528 ft 323 kts 128°
2026-04-26 11:18 11.56286 124.62196 13141 ft 322 kts 128°
2026-04-26 11:18 11.54857 124.63946 12778 ft 320 kts 128°
2026-04-26 11:18 11.53438 124.65684 12401 ft 318 kts 127°
2026-04-26 11:19 11.52022 124.67415 12026 ft 316 kts 128°
2026-04-26 11:19 11.50615 124.69126 11652 ft 314 kts 129°
2026-04-26 11:19 11.48989 124.70630 11262 ft 315 kts 143°
2026-04-26 11:19 11.47202 124.71867 10887 ft 314 kts 144°
2026-04-26 11:20 11.45391 124.73118 10505 ft 312 kts 143°
2026-04-26 11:20 11.44190 124.73951 10338 ft 308 kts 143°
2026-04-26 11:20 11.41847 124.75576 9933 ft 303 kts 143°
2026-04-26 11:20 11.40138 124.76760 9817 ft 292 kts 143°
2026-04-26 11:21 11.38491 124.77897 9502 ft 284 kts 143°
2026-04-26 11:21 11.36868 124.79021 9080 ft 280 kts 143°
2026-04-26 11:21 11.35266 124.80135 8626 ft 278 kts 143°
2026-04-26 11:21 11.33680 124.81241 8135 ft 274 kts 143°
2026-04-26 11:22 11.32110 124.82330 7574 ft 271 kts 143°
2026-04-26 11:22 11.30574 124.83391 7147 ft 262 kts 143°
2026-04-26 11:22 11.29115 124.84399 6775 ft 252 kts 143°
2026-04-26 11:22 11.27671 124.85396 6409 ft 243 kts 143°
2026-04-26 11:23 11.26236 124.86223 6041 ft 239 kts 155°
2026-04-26 11:23 11.24563 124.86703 5860 ft 260 kts 164°
2026-04-26 11:23 11.22780 124.87098 5680 ft 263 kts 164°
2026-04-26 11:23 11.20991 124.87497 5493 ft 263 kts 164°
2026-04-26 11:24 11.19206 124.87893 5308 ft 262 kts 164°
2026-04-26 11:24 11.17422 124.88289 5120 ft 262 kts 164°
2026-04-26 11:24 11.15640 124.88686 4941 ft 261 kts 164°
2026-04-26 11:24 11.13866 124.89084 4753 ft 261 kts 164°
2026-04-26 11:25 11.12092 124.89479 4564 ft 262 kts 164°
2026-04-26 11:25 11.10314 124.89876 4376 ft 262 kts 164°
2026-04-26 11:25 11.08539 124.90271 4189 ft 261 kts 164°
2026-04-26 11:25 11.06774 124.90678 4008 ft 259 kts 160°
2026-04-26 11:26 11.05210 124.91499 3821 ft 251 kts 137°
2026-04-26 11:26 11.04117 124.92839 3652 ft 245 kts 115°
2026-04-26 11:26 11.03620 124.94451 3466 ft 242 kts 94°
2026-04-26 11:26 11.03510 124.96163 3289 ft 241 kts 93°
2026-04-26 11:27 11.03405 124.97826 3102 ft 231 kts 93°
2026-04-26 11:27 11.03325 124.99450 2919 ft 222 kts 86°
2026-04-26 11:27 11.03843 125.00855 2760 ft 218 kts 50°
2026-04-26 11:27 11.05141 125.01595 2597 ft 219 kts 12°
2026-04-26 11:28 11.06649 125.01688 2444 ft 215 kts
2026-04-26 11:28 11.08126 125.01774 2291 ft 210 kts
2026-04-26 11:28 11.09541 125.01867 2151 ft 195 kts
2026-04-26 11:28 11.10835 125.01952 2015 ft 175 kts
2026-04-26 11:29 11.11987 125.02027 1884 ft 159 kts
2026-04-26 11:29 11.13052 125.02100 1786 ft 146 kts
2026-04-26 11:29 11.14049 125.02170 1624 ft 141 kts
2026-04-26 11:29 11.15024 125.02239 1408 ft 139 kts
2026-04-26 11:30 11.15990 125.02306 1233 ft 140 kts
2026-04-26 11:30 11.16638 125.02352 1116 ft 140 kts
2026-04-26 11:30 11.17943 125.02443 879 ft 141 kts
2026-04-26 11:30 11.18916 125.02513 677 ft 141 kts
2026-04-26 11:31 11.19892 125.02579 449 ft 141 kts
2026-04-26 11:31 11.20869 125.02654 237 ft 141 kts
2026-04-26 11:31 11.21846 125.02713 41 ft 140 kts
2026-04-26 11:31 11.22701 125.02772 11 ft 91 kts
2026-04-26 11:32 11.23080 125.02793 11 ft 39 kts
2026-04-26 11:32 11.23296 125.02809 9 ft 20 kts
2026-04-26 11:32 11.23375 125.02804 10 ft 8 kts 333°
2026-04-26 11:32 11.23393 125.02814 10 ft 2 kts 127°
2026-04-26 11:33 11.23373 125.02815 10 ft 8 kts 188°
2026-04-26 11:33 11.23255 125.02807 9 ft 20 kts 184°
2026-04-26 11:33 11.23114 125.02799 11 ft 21 kts 183°
2026-04-26 11:33 11.22963 125.02788 10 ft 20 kts 184°
2026-04-26 11:34 11.22841 125.02781 10 ft 19 kts 183°
2026-04-26 11:34 11.22707 125.02771 11 ft 20 kts 184°
2026-04-26 11:34 11.22584 125.02763 13 ft 7 kts 185°
2026-04-26 11:34 11.22563 125.02731 15 ft 5 kts 275°
2026-04-26 11:35 11.22565 125.02721 14 ft 1 kts 285°
2026-04-26 11:35 11.22568 125.02714 13 ft 2 kts 287°
2026-04-26 11:35 11.22575 125.02701 10 ft 3 kts 304°
2026-04-26 11:35 11.22585 125.02692 11 ft 3 kts 321°
2026-04-26 11:36 11.22610 125.02683 10 ft 3 kts 346°
2026-04-26 11:36 11.22624 125.02673 13 ft 2 kts 317°
2026-04-26 11:36 11.22631 125.02664 12 ft 1 kts 311°
2026-04-26 11:36 11.22634 125.02660 12 ft 3 kts 308°
2026-04-26 11:37 11.22638 125.02655 12 ft 0 kts 308°
2026-04-26 11:37 11.22640 125.02652 11 ft 0 kts 308°